Skip Page Navigation
NASA JPL Caltech
NASA Logo - Jet Propulsion Laboratory + View the NASA Portal
+ Center for Near-Earth Object Studies
JPL Home Earth Solar System Stars & Galaxies Technology
JPL Solar System Dynamics
BODIES ORBITS EPHEMERIDES TOOLS PHYSICAL DATA DISCOVERY FAQ SITE MAP
IMPORTANT: The SSD Announcement email list is now available. Major changes are coming in the near future, including possible hostname and/or URL changes. To be notified of such changes, subscribe to this email list.

Please visit this page for more details.


JPL Small-Body Database Browser
Search: [ help ]  
46081 (2001 EB10)
Classification: Main-belt Asteroid          SPK-ID: 2046081
Ephemeris | Orbit Diagram | Orbital Elements | Mission Design | Physical Parameters | Discovery Circumstances | Close-Approach Data ]

[ show orbit diagram ]
Orbital Elements at Epoch 2458600.5 (2019-Apr-27.0) TDB
Reference: JPL 21 (heliocentric ecliptic J2000)
 Element Value Uncertainty (1-sigma)   Units 
e .07253370880965816 4.3251e-08  
a 2.813281678583565 1.9666e-08 au
q 2.609223924509638 1.1974e-07 au
i 2.891944538105198 5.0563e-06 deg
node 123.0186793462926 0.00010678 deg
peri 170.4558755313885 0.00011612 deg
M 194.8945966877171 4.8977e-05 deg
tp 2459390.954796914417
(2021-Jun-25.45479691)
0.00023726 TDB
period 1723.527644646263
4.72
1.8073e-05
4.948e-08
d
yr
n .2088739342929926 2.1902e-09 deg/d
Q 3.017339432657492 2.1093e-08 au
  Orbit Determination Parameters
   # obs. used (total)      770  
   data-arc span      8394 days (22.98 yr)  
   first obs. used      1996-02-15  
   last obs. used      2019-02-08  
   planetary ephem.      DE431  
   SB-pert. ephem.      SB431-N16  
   condition code      0  
   norm. resid. RMS      .60908  
   source      ORB  
   producer      Otto Matic  
   solution date      2019-Jul-13 02:36:07  

Additional Information
 Earth MOID = 1.59247 au 
 Jupiter MOID = 2.1056 au 
 T_jup = 3.314 
[ show covariance matrix ]

Ephemeris | Orbit Diagram | Orbital Elements | Mission Design | Physical Parameters | Discovery Circumstances | Close-Approach Data ]

Physical Parameter Table
Parameter Symbol Value Units Sigma Reference Notes
absolute magnitude H 14.8   n/a MPO436103  
diameter diameter 6.825 km 0.114 urn:nasa:pds:neowise_diameters_albedos::2.0[mainbelt] (http://adsabs.harvard.edu/abs/2011ApJ...741...68M)  
geometric albedo albedo 0.032   0.002 urn:nasa:pds:neowise_diameters_albedos::2.0[mainbelt] (http://adsabs.harvard.edu/abs/2011ApJ...741...68M)  

46081 (2001 EB10)          Discovered 2001-Mar-02 by LONEOS at Anderson Mesa
Reference: 20020822/Numbers.arcLast Updated: 2004-04-19

[ show close-approach data ]
Alternate Designations
 2001 EB10 = 1998 SH97 
Ephemeris | Orbit Diagram | Orbital Elements | Mission Design | Physical Parameters | Discovery Circumstances | Close-Approach Data ]
ABOUT SSD CREDITS/AWARDS PRIVACY/COPYRIGHT GLOSSARY LINKS
FirstGov
(server date/time)  
NASA Home Page
Site Manager:   Ryan S. Park
Webmaster  Alan B. Chamberlin